Flag for Cyprus Weather past 2 weeks in Famagusta, Cyprus

Now
88 °F

Passing clouds.


Feels Like: 98 °F
Forecast: 74 / 95 °F
Wind: 23 mph from Southwest

Location: Larnaca Airport

Current Time: Jul 29, 2014 at 4:28:46 PM

Latest Report: Jul 29, 2014 at 4:00 PM


Visibility: N/A

Pressure: 29.71 "Hg

Humidity: 66%

Dew point: 75 °F

Location of FamagustaLocation

Historic Weather in Famagusta — Graph

°F

Famagusta temperature yesterday

Maximum temperature yesterday: 90 °F (at 2:30 PM)
Minimum temperature yesterday: 73 °F (at 3:30 AM)
Average temperature yesterday: 81 °F

Past Weeks' High & Low Weather Summary

 TemperatureHumidityPressure
High93 °F (Jul 24, 2:30 PM)100% (Jul 21, 4:30 AM)29.89 "Hg (Jul 21, 4:30 AM)
Low70 °F (Jul 19, 5:30 AM)30% (Jul 24, 2:30 PM)29.59 "Hg (Jul 20, 4:30 PM)
Average81 °F69%29.72 "Hg
* Reported Jul 14 3:00 PM — Jul 29 3:30 PM, Famagusta, Weather by CustomWeather, © 2014

Note: Actual official high and low records may vary slightly from our data, if they occured in-between our weather recording intervals... More about our weather records

Advertising

Famagusta weather history for previous 24 hours

 ConditionsComfort  
Time TempWeatherWind HumidityBarometerVisibility
3:30 PM
Jul 29
90 °FPassing clouds.18 mph59%29.71 "HgN/A
3:00 PM90 °FPassing clouds.18 mph55%29.71 "HgN/A
2:30 PM91 °FPassing clouds.17 mph52%29.74 "HgN/A
2:00 PM90 °FPassing clouds.15 mph55%29.74 "HgN/A
1:30 PM88 °FPassing clouds.13 mph62%29.74 "HgN/A
1:00 PM88 °FPassing clouds.12 mph62%29.74 "HgN/A
12:30 PM86 °FPassing clouds.10 mph70%29.77 "HgN/A
12:00 PM86 °FPassing clouds.10 mph62%29.77 "HgN/A
11:30 AM86 °FSunny.9 mph62%29.77 "Hg10 mi
11:00 AM86 °FPassing clouds.7 mph66%29.77 "HgN/A
10:30 AM84 °FSunny.6 mph70%29.77 "Hg10 mi
10:00 AM84 °FPassing clouds.6 mph70%29.77 "HgN/A
9:30 AM84 °FPassing clouds.6 mph74%29.77 "HgN/A
9:00 AM82 °FPassing clouds.6 mph79%29.77 "HgN/A
8:30 AM82 °FPassing clouds.6 mph79%29.77 "HgN/A
8:00 AM81 °FPassing clouds.6 mph84%29.77 "Hg5 mi
7:30 AM81 °FPassing clouds.7 mph84%29.77 "Hg5 mi
7:00 AM77 °FPassing clouds.5 mph83%29.77 "Hg4 mi
6:30 AM75 °FPassing clouds.6 mph89%29.74 "Hg4 mi
6:00 AM73 °FPassing clouds.6 mph94%29.74 "Hg4 mi
5:30 AM73 °FPassing clouds.6 mph89%29.74 "Hg6 mi
5:00 AM73 °FClear.5 mph83%29.74 "Hg10 mi
4:30 AM73 °FClear.5 mph89%29.74 "Hg5 mi
4:00 AM75 °FClear.2 mph89%29.74 "Hg5 mi
3:30 AM75 °FClear.5 mph83%29.74 "Hg10 mi
3:00 AM77 °FClear.6 mph79%29.74 "Hg10 mi
2:30 AM77 °FClear.7 mph79%29.77 "Hg10 mi
2:00 AM79 °FClear.5 mph79%29.77 "Hg10 mi
1:30 AM79 °FClear.2 mph79%29.77 "Hg10 mi
1:00 AM79 °FClear.No wind84%29.77 "Hg10 mi
12:30 AM79 °FClear.2 mph84%29.77 "Hg10 mi
12:00 AM79 °FClear.6 mph84%29.77 "Hg10 mi
11:30 PM
Jul 28
81 °FPassing clouds.6 mph79%29.77 "HgN/A
11:00 PM81 °FPassing clouds.5 mph84%29.77 "HgN/A
10:30 PM81 °FClear.5 mph84%29.77 "Hg10 mi
10:00 PM81 °FClear.5 mph84%29.77 "Hg10 mi
9:30 PM81 °FPassing clouds.3 mph84%29.77 "HgN/A
9:00 PM81 °FClear.5 mph79%29.77 "Hg10 mi
8:30 PM81 °FSunny.8 mph84%29.77 "Hg10 mi
8:00 PM82 °FSunny.8 mph74%29.77 "Hg10 mi
7:30 PM84 °FPassing clouds.12 mph70%29.77 "HgN/A
7:00 PM84 °FPassing clouds.16 mph70%29.77 "HgN/A
6:30 PM86 °FPassing clouds.18 mph70%29.77 "HgN/A
6:00 PM86 °FPassing clouds.20 mph70%29.77 "HgN/A
5:30 PM86 °FPassing clouds.21 mph70%29.77 "HgN/A
5:00 PM86 °FPassing clouds.20 mph70%29.77 "HgN/A
4:30 PM88 °FPassing clouds.21 mph66%29.80 "HgN/A
4:00 PM88 °FPassing clouds.22 mph62%29.80 "HgN/A
Weather by CustomWeather, © 2014

See weather overviewHow to use our weather pages